Location: Anna District 4 Election Precinct
(37.4833°N, 89.2195°W)
Time: 15:16:53
(UTC+00:00)

SAR-Lupe-1 - Pass Details

Date: 29 October 2020
Orbit: 480 x 485 km, 98.2° (Epoch: 26 November)

Event Time Altitude Azimuth Distance (km) Brightness Sun altitude
Rises 23:41:38 0° 16° (NNE) 2,550 7.5 -8.6°
Reaches altitude 10° 23:43:43 10° 19° (NNE) 1,667 6.5 -9.0°
Maximum altitude 23:47:16 64° 102° (ESE) 540 4.0 -9.7°
Drops below altitude 10° 23:50:48 10° 184° (S) 1,656 6.9 -10.4°
Sets 23:52:52 0° 187° (S) 2,532 7.9 -10.8°
